Погода в Куте

Индонезия     8°43′47″S   115°10′28″E
темп.,
°C
ветер,
м/с
пор.,
м/с
влажн.,
%
обл.,
%
осадки,
мм/ч
давл.,
гПа
погр.,
м
10 августа, ср
ср1023:00+26юв348289 1.4 1011213
02:00+26юв347762 2.3 1010648
05:00+26юв347834 0.6 1010668
08:00+26вюв347965 0.9 1012697
11:00+27юв557989 0.8 1012692
14:00+27вюв4579100 1.3 1010670
17:00+27вюв3478100 0.0 1009660
20:00+27юв458382 0.3 1011524
11 августа, чт
чт1123:00+26вюв348575 3.3 1012286
02:00+26вюв347989 5.0 1011553
05:00+26вюв337945 0.0 1010632
08:00+26вюв237837 0.1 1012593
11:00+27юв447968 0.1 1012666
14:00+27юв55797 0.1 1009628
17:00+27юв55805 0.3 1009582
20:00+26в34855 3.2 1011302
12 августа, пт
пт1223:00+26в34805 0.6 1012430
02:00+26вюв458087 0.7 1010693
05:00+26вюв458144 0.1 1010663
08:00+27вюв558173 0.2 1012665
11:00+27вюв547910 0.1 1011624
14:00+27юв45785 0.1 1009487
17:00+27вюв55805 0.0 1009585
20:00+27вюв68835 0.0 1011533
13 августа, сб
сб1323:00+27вюв56836 0.3 1011535
02:00+26вюв5583100 0.3 1010596
05:00+26в448495 0.1 1010473
08:00+27в458328 0.2 1011536
11:00+27вюв558129 0.1 1011546
14:00+27юв55805 0.1 1009498
17:00+27юв55819 0.1 1009576
20:00+27вюв458586 0.2 1011472
14 августа, вс
вс1423:00+27вюв56856 0.4 1011488
02:00+26вюв568695 2.1 1009419
05:00+26вюв55848 1.9 1009543
08:00+26всв34845 1.9 1011359
11:00+27юв33815 0.5 1011318
14:00+27юв44795 0.9 1009449
17:00+27юв568014 0.4 1008447
20:00+27в57825 2.1 1010227